Погода в Дмитриево

Россия / Рязанская область     53°45′08″N   39°37′27″E
темп.,
°C
ветер,
м/с
пор.,
м/с
влажн.,
%
обл.,
%
осадки,
мм/ч
давл.,
гПа
погр.,
м
26 февраля, пт
пт2600:00+1з4899100 0.0 1015207
03:00+1з41099100 0.1 1015234
06:00+2з61199100 0.6 1013270
09:00+3з714100100 0.9 1011327
12:00+3зюз816100100 0.0 1009456
15:00+2з816100100 0.1 1008498
18:00+3з81799100 0.1 1006530
21:00+2з61590100 0.1 1006645
27 февраля, сб
сб2700:000з7159076 0.0 1005506
03:000з7158876 0.0 1005521
06:000з7149250 0.0 1003646
09:000зсз7159074 0.1 1004749
12:00+1зсз81310091 0.1 1004742
15:00−1ссз7138690 0.1 1006817
18:00−6ссз4119192 0.0 1008331
21:00−9ссз4109370 0.0 1011318
28 февраля, вс
вс2800:00−11ссз389529 0.0 1013242
03:00−12ссз369650 0.0 1015170
06:00−13ссз359666 0.0 1016121
09:00−11ссз379445 0.0 1017299
12:00−9ссз359088 0.0 1017434
15:00−7ссз469194 0.0 1018502
18:00−8с2395100 0.1 1019113
21:00−10с2395100 0.1 102128
1 марта, пн
пн100:00−11с129698 0.0 102221
03:00−12ссз119694 0.1 102421
06:00−12ссз129674 0.0 102421
09:00−10всв119684 0.1 102630
12:00−7всв019083 0.0 1027223
15:00−6з128985 0.0 1028274
18:00−8зюз239562 0.0 102821
21:00−5зюз369573 0.0 1028177
2 марта, вт
вт200:00−5зюз4691100 0.0 1027121
03:00−2зюз61193100 0.0 1024398
06:00−1зюз71493100 0.1 1021479
09:00+1з81493100 0.1 1018598
12:00+1зсз81498100 0.0 1016793
15:00+1сз71399100 0.1 1016794
18:00−1сз6158981 0.2 1016569
21:00−1сз7148790 0.3 1018697